This is the latest recevied weather packets stored in our database for station/object KE5AKC. If no packets are shown the sender has not sent any weather packets the latest 1 day(s).
| Time | Temp. | Humidity | Pressure | Rain* | Wind** | Luminosity | Snow |
|---|---|---|---|---|---|---|---|
| 1778005927 | 27.78° C | 74% | 1009.3 hPa | 0 mm | 0.89 m/s, 315° | 333 W/m² | - |
| 1778005622 | 27.78° C | 73% | 1009.3 hPa | 0 mm | 0.45 m/s, 153° | 347 W/m² | - |
| 1778005320 | 27.78° C | 74% | 1009 hPa | 0 mm | 1.34 m/s, 186° | 372 W/m² | - |
| 1778005016 | 27.78° C | 73% | 1009 hPa | 0 mm | 0.45 m/s, 88° | 371 W/m² | - |
| 1778004714 | 27.78° C | 74% | 1009 hPa | 0 mm | 0.89 m/s, 259° | 329 W/m² | - |
| 1778004410 | 27.78° C | 74% | 1009 hPa | 0 mm | 1.34 m/s, 268° | 420 W/m² | - |
| 1778004107 | 27.78° C | 74% | 1009 hPa | 0 mm | 2.24 m/s, 231° | 529 W/m² | - |
| 1778003803 | 27.22° C | 76% | 1009.3 hPa | 0 mm | 0.89 m/s, 143° | 412 W/m² | - |
| 1778003499 | 27.22° C | 75% | 1009.3 hPa | 0 mm | 1.79 m/s, 231° | 121 W/m² | - |
| 1778003196 | 27.22° C | 75% | 1009.3 hPa | 0 mm | 1.34 m/s, 256° | 244 W/m² | - |
| 1778002892 | 27.22° C | 74% | 1009.3 hPa | 0 mm | 1.34 m/s, 220° | 244 W/m² | - |
| 1778002589 | 27.22° C | 75% | 1009.7 hPa | 0 mm | 0.89 m/s, 340° | 279 W/m² | - |
| 1778002286 | 27.22° C | 75% | 1010 hPa | 0 mm | 0.45 m/s, 133° | 278 W/m² | - |
| 1778001984 | 27.22° C | 76% | 1009.7 hPa | 0 mm | 0.89 m/s, 337° | 260 W/m² | - |
| 1778001680 | 26.67° C | 76% | 1009.7 hPa | 0 mm | 0.89 m/s, 148° | 269 W/m² | - |
| 1778001375 | 26.67° C | 76% | 1010 hPa | 0 mm | 2.24 m/s, 116° | 306 W/m² | - |
| 1778001072 | 26.67° C | 76% | 1009.3 hPa | 0 mm | 0.45 m/s, 190° | 259 W/m² | - |
| 1778000769 | 26.67° C | 78% | 1009.7 hPa | 0 mm | 0.45 m/s, 267° | 211 W/m² | - |
| 1778000465 | 26.67° C | 78% | 1009.7 hPa | 0 mm | 0 m/s | 193 W/m² | - |
| 1778000160 | 26.11° C | 80% | 1009.7 hPa | 0 mm | 0.45 m/s, 241° | 258 W/m² | - |
| 1777999856 | 26.11° C | 80% | 1009.7 hPa | 0 mm | 0 m/s | 247 W/m² | - |
| 1777999552 | 26.11° C | 80% | 1010 hPa | 0 mm | 0 m/s | 114 W/m² | - |
| 1777999250 | 26.11° C | 80% | 1009.7 hPa | 0 mm | 0 m/s | 155 W/m² | - |
| 1777998949 | 26.11° C | 79% | 1009.7 hPa | 0 mm | 0.45 m/s, 234° | 117 W/m² | - |
| 1777998645 | 26.11° C | 79% | 1009.7 hPa | 0 mm | 0 m/s | 134 W/m² | - |
* Rain latest hour (hover to see other rain measurements)
** Current wind speed in m/s (hover to see current wind gust speed)